Weather in Taurage

Lithuania     55°15′02″N   22°17′32″E
temp.,
°C
wind,
m/s
gust,
m/s
humid.,
%
clouds,
%
prec.,
mm/h
press.,
hPa
HPBL,
m
27 february, sat
sat2723:00+2w4119329 0.0 1018339
02:00+2wnw3109215 0.0 1019246
05:00+2nw5128929 0.0 1020441
08:00+1nw4138814 0.0 1022484
11:00+4nnw611760 0.0 1024660
14:00+6nnw610640 0.0 1027967
17:00+5nw410680 0.0 1027752
20:00+1nw39860 0.0 1029274
28 february, sun
sun2823:000nw389125 0.0 1029262
02:00+1wnw379162 0.0 1030277
05:00+1wnw379287 0.0 1028190
08:00+2w498890 0.0 1027263
11:00+5wnw597967 0.0 1026417
14:00+8nw5106770 0.0 10271062
17:00+6nw387880 0.0 1026316
20:00+3nw4118949 0.0 1028301
1 march, mon
mon123:00+2nnw26930 0.0 1029144
02:00+1nw24930 0.0 1031100
05:00+1nw38940 0.0 1030171
08:00+1nw36920 0.0 1031145
11:00+7wnw49700 0.0 1031513
14:00+9w59670 0.0 1030498
17:00+6w7147734 0.0 1028595
20:00+3w6139253 0.0 1028515
2 march, tue
tue223:00+2w4109556 0.0 1029317
02:00+1w359632 0.0 1030122
05:00+1w23939 0.0 102952
08:00+1w249316 0.0 102993
11:00+6w35760 0.0 1029344
14:00+8w47720 0.0 1029532
17:00+5w57840 0.0 1028434
20:00+3w469337 0.0 1029374
3 march, wed
wed323:00+2wnw349498 0.0 1030328
02:00+2wnw239499 0.0 1029211
05:00+1w239498 0.0 1029258
08:00+1wsw239399 0.0 1028264
11:00+2sw2387100 0.0 1028343
14:00+3sw3482100 0.0 1027482
17:00+4wsw2484100 0.0 1025497
20:00+2ssw239083 0.0 102349